GW6074 Weather Reports


time (UTC)temp
C
wind
direction
speed
KPH
gust
KPH
rain 1hr
cm
rain 24hr
cm
rain mn
cm
humidity
%
barometer
mb
20260510174816 18 334 9.7 12.9 0.00 0.18 0.18 41
20260510174314 18 49 11.3 20.9 0.00 0.18 0.18 40
20260510173810 18 54 11.3 14.5 0.00 0.18 0.18 41
20260510173306 18 85 6.4 9.7 0.00 0.18 0.18 41
20260510172802 18 65 11.3 12.9 0.00 0.18 0.18 41
20260510172258 18 79 8.0 11.3 0.00 0.18 0.18 39
20260510171755 18 12 14.5 17.7 0.00 0.18 0.18 43
20260510171252 18 15 14.5 16.1 0.00 0.18 0.18 43
20260510170749 18 45 6.4 6.4 0.00 0.18 0.18 41
20260510170245 17 15 14.5 17.7 0.00 0.18 0.18 46
20260510165740 18 33 14.5 17.7 0.00 0.18 0.18 42
20260510165237 17 25 4.8 6.4 0.00 0.18 0.18 41
20260510164734 17 45 8.0 11.3 0.00 0.18 0.18 44
20260510164232 17 21 12.9 24.1 0.00 0.18 0.18 39
20260510163731 17 70 3.2 11.3 0.00 0.18 0.18 41
20260510163228 17 55 11.3 14.5 0.00 0.18 0.18 46
20260510162727 17 20 9.7 16.1 0.00 0.18 0.18 41
20260510162225 17 44 6.4 9.7 0.00 0.18 0.18 48
20260510161721 17 46 6.4 14.5 0.00 0.18 0.18 45
20260510161217 17 79 6.4 6.4 0.00 0.18 0.18 46
20260510160714 17 53 11.3 16.1 0.00 0.18 0.18 52
20260510160209 17 73 8.0 11.3 0.00 0.18 0.18 49
20260510155706 17 104 4.8 9.7 0.00 0.18 0.18 49
20260510155202 17 38 8.0 17.7 0.00 0.18 0.18 46
20260510154657 17 72 3.2 9.7 0.00 0.18 0.18 51
20260510154153 17 67 6.4 11.3 0.00 0.18 0.18 50
20260510153648 16 72 8.0 12.9 0.00 0.18 0.18 46
20260510153145 16 64 14.5 17.7 0.00 0.18 0.18 46
20260510152642 16 42 4.8 6.4 0.00 0.18 0.18 54
20260510152138 16 53 14.5 16.1 0.00 0.18 0.18 55
20260510151634 16 63 9.7 12.9 0.00 0.18 0.18 50
20260510151133 16 68 11.3 14.5 0.00 0.18 0.18 52
20260510150628 16 62 12.9 17.7 0.00 0.18 0.18 51
20260510150124 16 87 4.8 17.7 0.00 0.18 0.18 51
20260510145620 16 63 12.9 17.7 0.00 0.18 0.18 52
20260510145117 15 80 6.4 14.5 0.00 0.18 0.18 56
20260510144613 15 58 9.7 14.5 0.00 0.18 0.18 55
20260510144109 15 53 14.5 17.7 0.00 0.18 0.18 54
20260510143605 15 50 17.7 22.5 0.00 0.18 0.18 54
20260510143101 15 55 19.3 24.1 0.00 0.18 0.18 52
20260510142558 15 46 14.5 24.1 0.00 0.18 0.18 55
20260510142055 15 57 19.3 20.9 0.00 0.18 0.18 59
20260510141552 15 51 16.1 22.5 0.00 0.18 0.18 61
20260510141050 15 49 14.5 20.9 0.00 0.18 0.18 63
20260510140545 15 56 11.3 25.7 0.00 0.18 0.18 64
20260510140045 15 47 19.3 24.1 0.00 0.18 0.18 64
20260510135541 14 36 14.5 24.1 0.00 0.18 0.18 63
20260510135037 14 40 16.1 25.7 0.00 0.18 0.18 64
20260510134534 14 53 12.9 16.1 0.00 0.18 0.18 67
20260510134031 14 46 14.5 17.7 0.00 0.18 0.18 68
20260510133527 13 43 11.3 14.5 0.00 0.18 0.18 68
20260510133023 13 61 11.3 16.1 0.00 0.18 0.18 68
20260510132520 13 34 11.3 17.7 0.00 0.18 0.18 68
20260510132017 13 28 17.7 17.7 0.00 0.18 0.18 67
20260510131515 13 34 9.7 14.5 0.00 0.18 0.18 68
20260510131012 13 23 12.9 16.1 0.00 0.18 0.18 69
20260510130508 13 37 9.7 17.7 0.00 0.18 0.18 69
20260510130006 13 36 12.9 16.1 0.00 0.18 0.18 68
20260510125501 13 13 14.5 16.1 0.00 0.18 0.18 68
20260510124958 12 25 11.3 17.7 0.00 0.18 0.18 69
20260510124454 12 34 14.5 16.1 0.00 0.18 0.18 67
20260510123952 12 31 16.1 17.7 0.00 0.18 0.18 68
20260510123447 12 35 11.3 16.1 0.00 0.18 0.18 68
20260510122943 12 29 12.9 16.1 0.00 0.18 0.18 68
20260510122439 12 44 9.7 17.7 0.00 0.18 0.18 68
20260510121935 12 28 11.3 14.5 0.00 0.18 0.18 71
20260510121432 12 32 14.5 16.1 0.00 0.18 0.18 68
20260510120930 12 36 12.9 14.5 0.00 0.18 0.18 70
20260510120427 12 35 11.3 16.1 0.00 0.18 0.18 71
20260510115923 12 22 12.9 14.5 0.00 0.18 0.18 71
20260510115420 12 17 12.9 14.5 0.00 0.18 0.18 71
20260510114916 12 28 12.9 14.5 0.00 0.18 0.18 72
20260510114414 12 22 12.9 12.9 0.00 0.18 0.18 72
20260510113914 11 35 11.3 12.9 0.00 0.18 0.18 73
20260510113410 11 15 11.3 12.9 0.00 0.18 0.18 72
20260510112907 12 13 12.9 12.9 0.00 0.18 0.18 72
20260510112404 12 26 9.7 12.9 0.00 0.18 0.18 70
20260510111900 12 6 11.3 16.1 0.00 0.18 0.18 68
20260510111357 11 11 12.9 16.1 0.00 0.18 0.18 70
20260510110852 11 15 9.7 14.5 0.00 0.18 0.18 72
20260510110349 11 33 9.7 12.9 0.00 0.18 0.18 72
20260510105845 12 22 8.0 11.3 0.00 0.18 0.18 71
20260510105345 12 6 9.7 12.9 0.00 0.18 0.18 70
20260510104841 12 18 12.9 14.5 0.00 0.18 0.18 68
20260510104338 12 15 9.7 14.5 0.00 0.18 0.18 69
20260510103834 12 0 8.0 12.9 0.00 0.18 0.18 71
20260510103331 12 25 6.4 6.4 0.00 0.18 0.18 71
20260510102827 12 36 6.4 6.4 0.00 0.18 0.18 71
20260510102323 12 19 8.0 11.3 0.00 0.18 0.18 70
20260510101820 12 27 8.0 11.3 0.00 0.18 0.18 69
20260510101318 12 356 11.3 12.9 0.00 0.18 0.18 70
20260510100814 12 1 6.4 9.7 0.00 0.18 0.18 70
20260510100312 12 335 8.0 11.3 0.00 0.18 0.18 69
20260510095808 12 352 8.0 11.3 0.00 0.18 0.18 69
20260510095305 13 51 8.0 9.7 0.00 0.18 0.18 69
20260510094802 13 9 9.7 12.9 0.00 0.18 0.18 68
20260510094257 13 17 11.3 14.5 0.00 0.18 0.18 69
20260510093754 13 25 14.5 14.5 0.00 0.18 0.18 68
20260510093251 13 30 14.5 20.9 0.00 0.18 0.18 67
20260510092747 13 18 19.3 24.1 0.00 0.18 0.18 68
20260510092243 13 18 16.1 22.5 0.00 0.18 0.18 69
20260510091738 13 5 14.5 17.7 0.00 0.18 0.18 70
20260510091236 13 31 17.7 20.9 0.00 0.18 0.18 70
20260510090732 13 27 17.7 20.9 0.00 0.18 0.18 69
20260510090230 13 24 17.7 20.9 0.00 0.18 0.18 69
20260510085725 13 28 17.7 20.9 0.00 0.18 0.18 69
20260510085219 13 29 11.3 14.5 0.00 0.18 0.18 72
20260510084716 13 29 11.3 12.9 0.00 0.18 0.18 72
20260510084213 13 26 11.3 12.9 0.00 0.18 0.18 73
20260510083710 13 23 11.3 11.3 0.00 0.18 0.18 72
20260510083207 13 61 8.0 11.3 0.00 0.18 0.18 72
20260510082702 13 19 9.7 11.3 0.00 0.18 0.18 72
20260510082158 13 20 11.3 14.5 0.00 0.18 0.18 71
20260510081653 13 1 11.3 12.9 0.00 0.18 0.18 72
20260510081149 13 11 11.3 12.9 0.00 0.18 0.18 73
20260510080648 13 23 11.3 14.5 0.00 0.18 0.18 73
20260510080146 13 13 12.9 16.1 0.00 0.18 0.18 74
20260510075642 13 5 11.3 14.5 0.00 0.18 0.18 77
20260510075140 14 15 9.7 14.5 0.00 0.18 0.18 76
20260510074637 14 358 9.7 12.9 0.00 0.18 0.18 77
20260510074132 13 14 9.7 12.9 0.00 0.18 0.18 77
20260510073629 13 37 6.4 9.7 0.00 0.18 0.18 77
20260510073125 13 67 6.4 11.3 0.00 0.18 0.18 77
20260510072622 13 93 4.8 6.4 0.00 0.18 0.18 80
20260510072118 13 95 4.8 4.8 0.00 0.18 0.18 81
20260510071614 13 88 4.8 4.8 0.00 0.18 0.18 81
20260510071112 14 107 3.2 4.8 0.00 0.18 0.18 76
20260510070609 14 122 1.6 3.2 0.00 0.18 0.18 73
20260510070107 14 142 0.0 0.0 0.00 0.18 0.18 74
20260510065602 14 159 0.0 0.0 0.00 0.18 0.18 74
20260510065058 14 136 0.0 0.0 0.00 0.18 0.18 73
20260510064555 14 127 1.6 1.6 0.00 0.18 0.18 74
20260510064052 14 140 0.0 0.0 0.00 0.18 0.18 75
20260510063549 14 141 0.0 0.0 0.00 0.18 0.18 74
20260510063046 14 141 0.0 0.0 0.00 0.18 0.18 76
20260510062542 14 145 0.0 0.0 0.00 0.18 0.18 76
20260510062037 13 169 0.0 0.0 0.00 0.18 0.18 80
20260510061534 13 154 0.0 0.0 0.00 0.18 0.18 80
20260510061030 13 153 0.0 0.0 0.00 0.18 0.18 81
20260510060527 13 167 0.0 0.0 0.00 0.18 0.18 81
20260510060023 13 164 0.0 1.6 0.00 0.18 0.18 82
20260510055519 13 178 3.2 3.2 0.00 0.18 0.18 83
20260510055018 13 183 3.2 3.2 0.00 0.18 0.18 81
20260510054513 13 188 6.4 6.4 0.18 0.18 0.18 80
20260510054008 14 239 6.4 6.4 0.48 0.18 0.18 79
20260510053503 14 268 11.3 16.1 0.43 0.15 0.15 76
20260510053000 15 252 11.3 12.9 0.30 0.10 0.10 75
20260510052456 15 265 9.7 12.9 0.30 0.08 0.08 73
20260510051952 16 153 6.4 11.3 0.13 0.05 0.05 69
20260510051448 16 272 4.8 17.7 0.18 0.03 0.03 68
20260510050944 16 229 6.4 20.9 0.18 0.03 0.03 62
20260510050442 17 80 6.4 12.9 0.00 0.00 0.00 55
20260510045939 18 187 6.4 16.1 0.00 0.03 0.03 54
20260510045436 17 163 8.0 12.9 0.00 0.03 0.03 52
20260510044933 17 304 11.3 16.1 0.00 0.03 0.03 56
20260510044430 17 13 14.5 20.9 0.00 0.03 0.03 62
20260510043926 17 13 14.5 17.7 0.00 0.03 0.03 60
20260510043422 17 17 19.3 24.1 0.00 0.03 0.03 59
20260510042921 17 21 17.7 25.7 0.00 0.03 0.03 58
20260510042416 18 3 20.9 24.1 0.00 0.03 0.03 56
20260510041912 18 15 17.7 22.5 0.00 0.03 0.03 60
20260510041409 18 20 17.7 24.1 0.00 0.03 0.03 59
20260510040907 18 0 19.3 22.5 0.00 0.03 0.03 62
20260510040404 18 0 9.7 16.1 0.00 0.03 0.03 65
20260510035859 20 356 20.9 24.1 0.00 0.03 0.03 62
20260510035355 20 209 6.4 11.3 0.00 0.03 0.03 54
20260510034850 20 177 8.0 11.3 0.00 0.03 0.03 54
20260510034349 20 183 8.0 14.5 0.00 0.03 0.03 54
20260510033845 20 203 6.4 11.3 0.00 0.03 0.03 55
20260510033342 20 195 12.9 14.5 0.00 0.03 0.03 53
20260510032838 20 204 9.7 14.5 0.00 0.03 0.03 53
20260510032335 20 207 11.3 14.5 0.00 0.03 0.03 54
20260510031831 20 211 9.7 12.9 0.00 0.03 0.03 55
20260510031327 20 205 11.3 14.5 0.00 0.03 0.03 56
20260510030826 20 165 11.3 16.1 0.00 0.03 0.03 56
20260510030323 20 209 11.3 14.5 0.00 0.03 0.03 58
20260510025820 20 194 12.9 17.7 0.00 0.03 0.03 59
20260510025318 20 221 6.4 16.1 0.00 0.03 0.03 59
20260510024814 20 198 12.9 14.5 0.00 0.03 0.03 57
20260510024312 20 198 11.3 14.5 0.00 0.03 0.03 57
20260510023808 20 204 11.3 14.5 0.00 0.03 0.03 57
20260510023304 20 205 9.7 14.5 0.00 0.03 0.03 58
20260510022801 20 188 14.5 14.5 0.00 0.03 0.03 58
20260510022300 20 180 9.7 12.9 0.00 0.03 0.03 57
20260510021800 20 193 9.7 12.9 0.00 0.03 0.03 58
20260510021258 20 137 11.3 12.9 0.00 0.03 0.03 56
20260510020754 20 191 9.7 12.9 0.00 0.03 0.03 55
20260510020253 20 185 9.7 12.9 0.00 0.03 0.03 53
20260510015750 20 192 6.4 9.7 0.00 0.03 0.03 54
20260510015247 20 193 6.4 11.3 0.00 0.03 0.03 54
20260510014741 20 203 3.2 12.9 0.00 0.03 0.03 54
20260510014239 20 194 4.8 6.4 0.00 0.03 0.03 55
20260510013735 20 159 6.4 9.7 0.00 0.03 0.03 56
20260510013230 20 175 6.4 9.7 0.00 0.03 0.03 56
20260510012725 20 211 4.8 6.4 0.00 0.03 0.03 57
20260510012221 20 169 6.4 6.4 0.00 0.03 0.03 57
20260510011720 20 195 4.8 6.4 0.00 0.03 0.03 56
20260510011216 20 195 6.4 6.4 0.00 0.03 0.03 56
20260510010713 21 198 6.4 6.4 0.00 0.03 0.03 57
20260510010209 21 202 8.0 11.3 0.00 0.03 0.03 57
20260510005706 21 213 4.8 11.3 0.00 0.03 0.03 57
20260510005203 21 172 3.2 11.3 0.00 0.03 0.03 56
20260510004702 21 188 4.8 9.7 0.00 0.03 0.03 59
20260510004159 21 208 3.2 6.4 0.00 0.03 0.03 62
20260510003656 21 220 6.4 9.7 0.00 0.03 0.03 63
20260510003152 21 210 6.4 9.7 0.00 0.03 0.03 61
20260510002651 21 182 4.8 6.4 0.00 0.03 0.03 61
20260510002149 21 205 4.8 6.4 0.00 0.03 0.03 60
20260510001646 22 226 4.8 4.8 0.00 0.03 0.03 60
20260510001144 22 221 6.4 9.7 0.00 0.03 0.03 58
20260510000644 22 218 8.0 11.3 0.00 0.03 0.03 59
20260510000142 22 205 9.7 11.3 0.00 0.03 0.03 57
20260509235638 22 212 9.7 12.9 0.00 0.03 0.03 56
20260509235135 22 235 9.7 12.9 0.00 0.03 0.03 55
20260509234631 23 245 9.7 12.9 0.00 0.03 0.03 53
20260509234129 23 223 9.7 12.9 0.00 0.03 0.03 53
20260509233626 23 241 9.7 12.9 0.00 0.03 0.03 54
20260509233124 23 234 9.7 12.9 0.00 0.03 0.03 54
20260509232620 23 245 12.9 16.1 0.00 0.03 0.03 49
20260509232117 23 234 9.7 14.5 0.00 0.03 0.03 51
20260509231613 23 226 9.7 12.9 0.00 0.03 0.03 50
20260509231111 23 243 11.3 17.7 0.00 0.03 0.03 48
20260509230608 23 253 14.5 17.7 0.00 0.03 0.03 47
20260509230105 23 234 11.3 16.1 0.00 0.03 0.03 48
20260509225600 23 216 17.7 17.7 0.00 0.03 0.03 46
20260509225056 23 253 17.7 22.5 0.00 0.03 0.03 48
20260509224551 23 232 12.9 17.7 0.00 0.03 0.03 48
20260509224049 24 240 16.1 17.7 0.00 0.03 0.03 48
20260509223546 23 253 12.9 14.5 0.00 0.03 0.03 44
20260509223043 24 253 14.5 22.5 0.00 0.03 0.03 46
20260509222539 24 254 11.3 14.5 0.00 0.03 0.03 47
20260509222036 24 254 9.7 16.1 0.00 0.03 0.03 48
20260509221531 24 244 14.5 16.1 0.00 0.03 0.03 46
20260509221027 24 186 12.9 16.1 0.00 0.03 0.03 44
20260509220523 24 233 9.7 12.9 0.00 0.03 0.03 44
20260509220020 25 241 9.7 14.5 0.00 0.03 0.03 43
20260509215515 25 167 3.2 9.7 0.00 0.03 0.03 40
20260509215013 24 196 8.0 14.5 0.00 0.03 0.03 46
20260509214510 24 259 14.5 17.7 0.00 0.03 0.03 43
20260509214007 24 281 11.3 17.7 0.00 0.03 0.03 43
20260509213502 24 239 4.8 14.5 0.00 0.03 0.03 47
20260509212959 24 258 6.4 17.7 0.00 0.03 0.03 42
20260509212457 24 130 6.4 20.9 0.00 0.03 0.03 46
20260509211953 24 131 6.4 16.1 0.00 0.03 0.03 45
20260509211448 24 282 12.9 16.1 0.00 0.03 0.03 44
20260509210946 23 235 11.3 17.7 0.00 0.03 0.03 56
20260509210443 23 251 19.3 24.1 0.00 0.03 0.03 51
20260509205938 23 277 20.9 22.5 0.00 0.03 0.03 53
20260509205433 23 265 14.5 16.1 0.00 0.03 0.03 54
20260509204929 23 269 19.3 24.1 0.00 0.03 0.03 51
20260509204425 23 264 9.7 20.9 0.00 0.03 0.03 48
20260509203922 23 252 12.9 20.9 0.00 0.03 0.03 51
20260509203418 23 248 17.7 24.1 0.00 0.03 0.03 47
20260509202916 23 296 6.4 25.7 0.00 0.03 0.03 47
20260509202411 23 272 11.3 24.1 0.00 0.03 0.03 56
20260509201907 23 286 9.7 17.7 0.00 0.03 0.03 58
20260509201402 23 254 19.3 27.4 0.00 0.03 0.03 54
20260509200900 23 248 8.0 27.4 0.00 0.03 0.03 58
20260509200359 23 242 14.5 16.1 0.00 0.03 0.03 58
20260509195857 23 267 14.5 20.9 0.00 0.03 0.03 59
20260509195356 22 244 22.5 29.0 0.00 0.03 0.03 61
20260509194856 22 262 20.9 25.7 0.00 0.03 0.03 60
20260509194353 22 251 20.9 25.7 0.00 0.03 0.03 59
20260509193850 22 241 11.3 17.7 0.00 0.03 0.03 54
20260509193349 22 238 17.7 22.5 0.00 0.03 0.03 62
20260509192846 22 233 22.5 27.4 0.00 0.03 0.03 62
20260509192342 22 240 16.1 25.7 0.00 0.03 0.03 62
20260509191837 22 262 17.7 20.9 0.00 0.03 0.03 65
20260509191333 22 235 20.9 24.1 0.00 0.03 0.03 62
20260509190830 22 259 24.1 30.6 0.00 0.03 0.03 62
20260509190327 22 217 9.7 22.5 0.00 0.03 0.03 64
20260509185824 22 120 14.5 25.7 0.00 0.03 0.03 62
20260509185320 22 299 12.9 27.4 0.00 0.03 0.03 62
20260509184818 22 253 20.9 25.7 0.00 0.03 0.03 61
20260509184315 21 246 25.7 33.8 0.00 0.03 0.03 61
20260509183812 22 263 24.1 30.6 0.00 0.03 0.03 63
20260509183307 22 253 20.9 29.0 0.00 0.03 0.03 65
20260509182802 21 259 14.5 25.7 0.00 0.03 0.03 70
20260509182300 21 252 17.7 25.7 0.00 0.03 0.03 69
20260509181757 21 238 14.5 27.4 0.00 0.03 0.03 68
20260509181255 21 239 24.1 30.6 0.00 0.03 0.03 66
20260509180752 21 263 22.5 29.0 0.00 0.03 0.03 67
20260509180248 21 254 14.5 27.4 0.00 0.03 0.03 69
20260509175744 21 244 24.1 33.8 0.00 0.03 0.03 67
20260509175241 20 235 22.5 27.4 0.00 0.03 0.03 72